sat.trackr.live / text

‹ back to catalog

HAIYANG-1C

NORAD 43609 · 2018-068A

PAYLOAD ACTIVE UNKNOWN

§ Identity

Operator
Country
PRC
Launch date
2018-09-07
Launch site
TAISC
Launch vehicle
Mass (kg)
RCS (m²)

External: N2YO · Heavens-Above · Gunter

§ Orbital elements

Epoch: 2026-09-10T03:38:42.603936Z

Period
100.41 min
Inclination
98.5130°
Eccentricity
0.0010558
Mean motion
14.34138253 rev/d
Perigee alt
770.4 km
Apogee alt
785.5 km
Semi-major
7,156.1 km
B*
4.8395e-5
RAAN
324.1976°
Arg perigee
195.7727°
Mean anomaly
164.3130°
Rev number
41,926

§ Raw data

HAIYANG-1C1 43609U 18068A   26253.15188199  .00000092  00000+0  48395-4 0  99982 43609  98.5130 324.1976 0010558 195.7727 164.3130 14.34138253419263

JSON: /api/v1/satellites/43609 · /tle

For live sub-satellite position, see the globe view (requires WebGL).

§ Visibility from observer

Set your observer location to see the next 7 days of passes ≥ 10°. The values pass through the URL so the page stays shareable.

No JS? Fill the form by hand. The geolocation button needs JavaScript.

§ Radio — SatNOGS DB

ModeDescriptionDownlinkUplink
FM S-band telemetry 2.210 GHz

1 transmitter · refreshed weekly from db.satnogs.org